Theta_e
348 350 348 348 347 347 348 347 347 347 346 347 346 347 347 347 349 345 344 343 344 346 346 345 343 344 341 334 332 332 334 334 341 342 334 333 340 343 344 339 337 341 338
347 348 345 347 349 348 348 348 348 348 347 346 343 338 346 347 347 348 347 344 344 343 346 346 344 343 345 344 339 334 333 336 339 336 336 339 335 330 342 345 343 341 340
347 347 347 346 347 347 347 347 347 346 347 347 345 344 345 348 347 347 344 345 344 344 343 343 346 345 344 343 344 341 338 334 333 337 337 338 342 341 336 335 344 345 343
349 347 349 348 350 349 348 347 347 347 346 346 346 346 346 346 347 345 340 336 345 342 342 343 343 346 345 345 345 345 343 341 338 335 335 334 342 343 341 339 336 334 338
349 349 349 350 351 350 350 351 350 349 349 346 345 345 345 343 345 346 345 341 342 345 345 343 344 344 344 345 344 344 346 343 341 341 339 339 336 336 333 334 337 337 336
350 351 351 352 352 352 352 351 349 349 349 347 346 346 342 341 343 340 341 343 342 341 340 345 345 346 344 343 341 341 346 346 344 342 342 341 340 339 337 333 331 332 337
350 344 342 351 352 352 353 350 348 348 347 346 344 344 344 341 342 340 342 342 343 343 342 345 344 345 345 346 343 342 343 347 346 345 344 343 342 342 340 340 339 336 335
352 350 349 350 351 353 353 352 349 350 347 347 344 343 339 342 341 342 341 341 343 342 344 343 344 342 345 347 347 344 344 343 345 346 346 345 344 342 342 342 341 341 341
351 352 353 352 351 354 355 354 351 346 347 346 347 345 341 339 341 340 340 341 342 342 341 341 341 341 345 347 347 347 347 346 344 345 345 345 345 344 344 343 342 343 342
353 354 353 337 338 342 344 340 343 344 344 344 342 342 343 343 340 339 339 339 340 341 341 341 341 342 341 341 347 347 347 347 346 346 346 345 346 346 345 346 344 342 343
355 349 338 336 335 336 338 339 337 337 338 339 339 339 338 339 340 340 338 336 337 338 338 338 338 340 341 341 341 344 342 345 347 347 346 347 346 345 346 346 346 345 343
344 337 335 335 336 335 334 334 335 338 337 337 336 337 337 337 337 336 334 333 334 334 336 338 339 338 338 340 342 343 344 343 341 341 345 346 346 347 346 346 345 343 345
340 336 333 334 333 331 332 334 334 335 335 336 336 336 335 334 333 332 332 331 331 330 332 333 334 334 334 336 339 342 344 344 345 347 347 346 346 346 347 345 346 346 346
337 331 332 331 332 331 334 335 336 336 336 334 334 333 332 330 330 329 329 329 329 326 326 326 327 329 331 329 330 334 341 343 343 342 342 342 344 346 347 347 346 347 348
330 328 331 333 331 334 335 336 335 334 333 331 332 332 331 328 326 323 323 325 327 327 325 323 324 325 326 327 330 333 335 337 339 340 340 341 342 344 345 346 345 346 348
328 330 329 330 334 336 335 335 333 331 330 329 330 326 323 319 320 321 322 322 323 326 327 325 325 325 325 326 327 329 332 334 338 340 337 336 338 342 342 342 344 344 346
328 326 331 333 336 334 333 329 329 330 329 326 324 319 319 320 321 321 320 320 320 321 322 323 324 324 325 326 327 331 333 333 335 337 339 337 332 332 335 339 344 345 346
326 332 334 335 335 332 330 329 327 328 324 320 319 319 321 322 321 320 320 320 320 320 321 322 322 323 324 325 327 328 329 332 334 333 337 336 333 334 333 339 345 345 345
330 334 336 336 332 328 327 327 328 324 320 318 318 321 322 321 320 320 321 322 322 322 322 322 323 323 324 324 325 325 325 327 331 335 336 337 338 333 334 340 344 343 342
331 335 335 333 327 326 327 328 326 321 317 317 317 320 321 321 321 322 324 324 324 324 323 323 324 324 324 324 324 324 324 328 333 336 337 338 340 338 334 335 337 343 343
331 333 335 330 326 327 326 327 322 317 316 316 322 322 322 322 324 324 325 324 323 325 325 325 324 324 323 324 324 324 327 329 335 336 337 338 339 340 340 336 337 340 338
332 335 334 328 326 328 327 326 318 315 315 318 322 321 321 323 323 322 320 319 320 323 324 325 324 324 324 324 324 326 328 333 333 337 338 338 339 339 339 338 337 339 337
334 336 334 329 327 329 328 321 317 317 314 320 323 321 322 323 323 321 319 318 323 320 321 325 325 324 324 324 326 329 330 334 335 339 339 338 339 339 339 340 340 335 337
335 334 332 329 328 330 327 319 319 318 315 319 323 322 323 323 323 320 319 318 324 325 324 324 324 324 324 324 325 326 333 334 336 338 339 338 340 340 340 341 341 340 340
333 330 328 328 329 328 324 319 320 316 315 320 323 322 322 322 321 319 319 318 321 325 328 328 327 325 324 324 325 325 329 334 334 338 339 341 341 342 342 342 341 341 341
332 329 330 331 330 328 321 320 316 314 315 320 322 321 321 319 320 319 318 317 319 322 329 332 329 325 325 325 325 325 327 335 334 332 338 339 339 339 338 340 340 340 338
Wind_Speed
10 11 11 11 12 12 13 13 16 17 16 15 13 18 18 16 16 13 15 15 11 17 18 18 18 18 20 21 21 20 20 20 20 20 19 19 20 19 18 17 16 16 16
13 13 13 13 13 13 13 14 16 17 18 18 20 17 18 17 18 17 16 15 16 16 21 23 21 19 20 20 21 22 21 21 21 21 22 21 20 20 20 20 18 17 17
18 17 15 14 14 15 15 16 16 16 16 19 20 19 18 19 19 20 20 18 19 19 20 23 27 23 22 20 20 23 22 22 23 23 22 23 23 22 21 23 21 21 20
17 19 18 14 13 12 15 14 17 20 20 18 18 18 19 21 24 23 22 24 19 19 21 22 25 28 27 24 23 23 24 23 24 24 24 24 24 25 24 23 24 23 24
7 14 21 19 17 18 18 17 19 20 22 20 20 22 24 24 25 25 27 25 20 21 23 24 24 26 30 29 27 27 27 25 25 24 24 25 26 27 27 26 24 24 23
12 13 17 20 21 20 16 16 17 18 18 18 20 22 20 22 25 26 26 25 25 25 26 27 28 29 28 29 31 30 31 29 28 26 24 25 26 27 27 27 26 25 25
11 13 14 14 15 16 16 16 16 16 17 15 16 18 17 21 16 19 20 20 21 18 19 24 28 30 31 30 32 33 34 34 33 31 29 26 25 26 28 28 27 26 25
16 15 14 15 17 18 18 15 13 16 16 13 5 7 4 11 6 14 24 18 15 20 20 23 22 26 25 28 30 32 34 36 36 36 34 33 30 27 27 28 28 27 26
13 13 15 17 18 19 18 13 11 11 12 15 10 5 3 3 13 11 19 18 17 18 24 25 25 25 23 25 29 32 31 36 38 39 37 35 36 34 30 30 29 29 27
17 17 15 8 6 6 5 7 7 8 9 11 14 9 13 17 3 7 8 19 19 19 22 22 22 21 23 24 25 29 30 33 35 36 35 37 38 38 35 33 32 33 31
12 11 7 8 7 6 4 5 8 10 11 12 12 13 13 12 12 5 10 12 22 22 24 27 25 23 25 26 28 30 31 35 36 35 32 30 35 39 40 36 35 33 33
9 7 9 7 6 5 8 9 9 10 10 12 13 14 13 7 8 8 5 14 17 23 22 24 23 26 26 25 27 31 29 28 34 36 35 29 29 35 37 37 36 34 33
9 9 8 7 8 8 7 7 9 12 13 14 15 16 16 19 19 20 17 17 9 24 22 25 26 26 26 25 25 28 30 27 26 28 29 30 31 31 34 37 38 39 37
10 8 8 8 7 7 6 7 9 13 15 16 17 17 18 21 22 26 21 18 14 17 26 26 27 27 29 33 31 28 32 35 34 33 32 29 28 32 33 35 35 38 38
9 8 7 7 7 5 8 11 10 12 16 17 17 18 20 24 28 33 34 29 22 15 18 26 25 26 25 27 30 29 31 32 31 31 31 27 28 29 27 28 29 30 33
10 8 7 6 6 8 8 10 12 14 15 17 18 22 29 35 35 30 29 29 29 27 17 35 31 29 32 35 35 33 33 33 32 31 32 36 34 32 30 31 33 30 29
9 7 5 5 6 7 9 9 12 14 16 20 27 32 36 38 36 34 32 30 31 30 21 33 39 34 35 38 36 32 31 35 36 35 34 34 36 34 33 32 30 26 27
8 6 6 7 5 6 8 8 11 12 20 28 32 34 38 37 36 35 32 32 32 32 32 24 35 34 32 32 35 30 29 33 37 37 34 34 30 34 32 24 22 24 28
8 7 7 5 6 5 6 8 10 17 23 28 33 33 35 37 36 35 36 35 36 34 33 32 31 37 33 29 28 33 30 35 38 38 36 36 36 32 28 26 22 26 28
9 8 7 6 4 5 7 8 14 20 26 32 35 33 33 34 38 39 40 40 39 34 32 31 31 33 28 24 27 26 26 29 33 35 34 34 33 33 33 36 33 29 30
9 8 8 8 5 5 8 10 15 22 28 32 34 31 33 34 40 45 43 40 37 32 28 26 24 25 23 19 20 26 28 28 27 31 31 32 30 31 32 33 35 35 36
10 10 9 8 7 7 9 11 15 21 27 31 31 30 30 32 39 41 42 43 39 33 29 25 23 20 22 21 24 24 23 18 6 17 24 27 27 31 32 31 34 37 37
10 11 11 11 10 9 10 11 14 22 27 29 28 25 29 36 38 42 47 39 34 28 34 31 26 27 23 25 24 22 23 19 17 9 13 10 18 25 27 28 29 29 23
11 11 11 11 11 11 11 11 16 23 26 30 31 26 32 40 40 48 49 41 34 25 22 25 32 33 31 30 29 24 18 23 22 18 18 5 16 18 20 19 25 24 19
11 10 9 10 10 12 10 12 19 23 25 30 31 26 28 33 42 47 46 41 35 30 31 29 32 34 36 33 27 19 18 9 5 7 16 12 9 8 3 6 6 11 14
12 11 10 10 11 11 7 13 18 21 24 27 28 27 29 35 39 48 49 36 31 31 27 17 21 31 33 30 27 26 20 10 4 2 12 14 6 2 3 2 1 5 5
Wind_Direction
257 269 276 286 288 292 297 291 291 294 291 281 290 275 280 286 292 286 286 279 264 249 249 259 257 261 262 256 253 249 246 242 241 245 247 244 244 247 251 252 247 246 250
260 272 275 284 288 290 296 295 299 301 296 281 294 286 285 286 283 280 279 270 260 259 255 254 258 258 258 265 264 257 251 249 248 249 251 252 250 248 246 251 254 256 255
265 263 270 273 294 292 297 294 295 301 302 294 292 292 286 287 284 283 284 277 263 255 255 260 255 255 255 258 262 261 259 255 254 253 253 254 255 254 250 249 250 255 261
258 260 263 272 294 291 312 302 300 300 301 296 298 296 289 286 280 275 294 292 266 263 259 255 253 256 257 258 259 259 260 258 255 254 254 253 253 256 256 253 252 250 253
284 256 255 270 279 285 292 296 301 304 300 297 300 292 285 282 281 280 290 285 275 281 270 263 262 260 258 258 259 260 258 255 255 255 254 255 257 256 258 256 255 256 256
281 272 268 271 275 285 287 299 308 309 305 304 303 300 294 285 287 285 283 285 279 278 279 275 273 271 267 262 258 258 257 254 251 250 252 251 254 257 257 257 257 256 259
280 282 273 275 279 282 290 301 310 314 312 319 315 318 305 299 297 297 295 309 291 283 290 284 275 273 273 273 264 258 257 253 252 249 248 248 249 254 257 257 257 258 260
270 276 285 288 289 288 287 289 302 309 308 319 301 303 315 316 312 324 313 304 293 303 295 305 285 290 280 276 271 266 258 256 254 252 252 252 250 249 252 255 257 258 259
273 272 286 294 292 289 291 291 292 296 301 310 317 284 314 275 324 312 306 298 294 298 297 299 292 288 280 279 273 268 264 258 257 255 253 255 253 250 250 252 255 256 258
264 271 282 298 304 306 304 301 303 304 300 300 316 302 283 288 296 312 326 312 307 306 301 298 297 295 294 280 282 270 269 267 262 261 256 257 259 252 250 251 252 254 255
245 246 259 285 301 309 315 315 309 304 300 300 305 310 312 305 293 270 303 307 303 298 295 296 296 292 287 285 279 275 280 274 268 263 263 255 256 260 255 249 250 251 255
218 243 275 293 301 313 319 320 316 310 307 304 303 305 306 299 296 295 296 303 294 299 294 290 286 287 287 281 279 281 273 273 264 262 262 261 255 251 256 259 257 254 253
239 266 277 296 315 331 333 331 321 309 309 309 307 305 303 302 306 307 300 297 282 298 293 287 281 283 282 279 276 276 274 272 273 268 264 264 260 248 246 249 254 256 252
243 257 279 289 308 314 314 317 319 312 309 308 306 307 305 304 306 306 292 292 298 292 285 276 284 274 269 274 274 271 269 269 269 265 266 266 267 257 252 249 248 251 255
236 254 270 283 293 301 316 315 318 316 311 312 311 306 303 303 301 298 295 281 271 288 286 285 277 278 272 269 267 266 265 268 270 266 263 262 259 256 255 251 249 252 250
240 252 268 283 294 307 316 312 320 323 315 316 318 315 309 311 306 292 282 275 265 259 271 278 273 269 274 272 267 265 262 265 268 267 261 259 253 253 256 259 253 250 249
241 259 261 266 296 314 324 322 328 319 320 321 318 315 312 313 304 293 284 277 271 265 266 270 273 274 271 270 268 263 263 265 265 264 264 259 253 253 258 258 246 243 242
240 238 258 275 288 308 319 322 324 327 326 323 320 315 312 311 300 292 285 278 273 267 265 273 272 274 270 264 262 266 263 266 265 263 260 260 253 257 262 260 253 236 231
230 246 267 256 286 302 295 328 319 324 324 323 322 320 316 308 297 294 287 279 276 272 264 262 264 268 269 258 258 260 264 270 261 260 260 259 258 254 252 251 248 228 234
232 240 240 252 261 280 309 316 317 321 322 322 323 319 322 311 302 298 297 291 279 271 264 257 256 261 260 257 253 258 268 262 250 255 255 256 254 254 254 245 249 246 246
226 239 234 260 271 288 312 311 316 321 325 327 330 329 326 315 307 304 295 297 289 274 263 254 250 251 249 244 241 255 252 252 249 251 250 253 251 253 250 248 249 244 250
224 237 240 263 265 291 298 299 315 327 330 336 338 338 327 318 319 318 309 298 283 268 260 246 245 241 243 235 244 242 249 236 244 252 244 247 247 250 255 255 249 249 253
230 227 241 253 266 278 285 294 316 331 332 335 336 336 329 329 323 326 332 325 315 283 256 245 240 238 236 231 241 239 233 236 233 240 216 255 241 250 257 256 251 251 261
221 232 253 260 281 297 276 299 323 332 333 337 341 332 330 329 331 337 346 339 329 312 280 251 242 243 237 235 239 248 238 238 241 240 241 220 267 267 277 257 244 248 262
222 237 256 266 283 293 273 311 330 332 336 338 343 344 348 337 349 356 354 342 337 329 308 284 256 245 239 238 236 249 263 250 250 239 236 229 247 247 245 238 237 252 266
225 236 243 265 277 282 276 317 331 331 333 339 351 359 360 351 9 15 5 349 349 339 6 345 260 248 237 242 239 233 245 219 217 288 226 189 168 111 13 2 237 163 323